Regional Weather Roundup
Issued by NWS

Home | Current Version | Previous Version | Graphics & Text | Print | Product List | Glossary On
Versions: 1 2 3 4 5 6 7 8 9 10 11 12 13 14 15 16 17 18 19 20 21 22 23 24 25 26 27 28 29 30 31 32 33 34 35 36 37 38 39 40 41 42 43 44 45 46 47 48 49 50
000
ASUS45 KTFX 301510
RWRMT
MONTANA REGIONAL WEATHER ROUNDUP
NATIONAL WEATHER SERVICE GREAT FALLS MT
900 AM MDT THU JUL 30 2015

NOTE: "FAIR" INDICATES FEW OR NO CLOUDS BELOW 12000 FEET WITH NO
SIGNIFICANT WEATHER AND/OR OBSTRUCTIONS TO VISIBILITY.

MTZ001>007-043-301600-
WEST OF THE DIVIDE

CITY           SKY/WX    TMP DP  RH WIND       PRES   REMARKS
KALISPELL      SUNNY     66  41  40 NE7       30.27R
MISSOULA       SUNNY     57  46  66 CALM      30.33S
BUTTE          SUNNY     55  38  52 CALM      30.42S
MULLAN PASS    SUNNY     62  34  35 S6        30.40R
DEER LODGE       N/A     57  43  58 CALM      30.42R
EUREKA           N/A     63  41  45 CALM      30.29S
HAMILTON         N/A     63  39  42 S5        30.33S
LIBBY            N/A     61  39  44 CALM      30.27S
$$

MTZ008-052>055-301600-
SOUTHWEST MONTANA

CITY           SKY/WX    TMP DP  RH WIND       PRES   REMARKS
BOZEMAN        SUNNY     61  47  59 CALM      30.37R
DILLON         SUNNY     60  45  57 SW8       30.39R
W YELLOWSTONE  SUNNY     48  39  71 CALM      30.50S
$$

MTZ009-010-012-014-046-048-049-054-301600-
EAST SLOPES AND CENTRAL MONTANA

CITY           SKY/WX    TMP DP  RH WIND       PRES   REMARKS
CUT BANK       SUNNY     64  40  41 CALM      30.28S
GREAT FALLS    SUNNY     68  42  38 SW10      30.29R
MALMSTROM AFB  SUNNY     67  43  41 SW9       30.29R
HELENA         SUNNY     63  42  46 CALM      30.33S
$$

MTZ011-013-016-021-045-047-050-051-301600-
NORTH CENTRAL MONTANA

CITY           SKY/WX    TMP DP  RH WIND       PRES   REMARKS
HAVRE          SUNNY     63  52  67 W3        30.25R
LEWISTOWN      SUNNY     69  44  40 CALM      30.32R
CHINOOK          N/A     64  54  68 SW6       30.25R
FORT BENTON      N/A     66  46  48 SW6       30.28R
$$

MTZ017>020-022>027-061-062-301600-
NORTHEAST MONTANA

CITY           SKY/WX    TMP DP  RH WIND       PRES   REMARKS
GLASGOW        SUNNY     66  54  65 NW3       30.21R
JORDAN           N/A     72  47  40 NW7       30.22R
SIDNEY         SUNNY    N/A N/A N/A CALM      30.18S
WOLF POINT     SUNNY     68  53  58 SW3       30.20R
PLENTYWOOD       N/A     66  54  63 W6        30.19S
POPLAR           N/A     68  54  60 CALM      30.20S
$$

MTZ028>42-056>058-301600-
SOUTHCENTRAL AND SOUTHEAST MONTANA

CITY           SKY/WX    TMP DP  RH WIND       PRES   REMARKS
BAKER          SUNNY     76  41  28 W12       30.23R
BILLINGS       SUNNY     64  43  46 SW13      30.30S
LIVINGSTON     SUNNY     63  44  50 NW6       30.35S
MILES CITY     SUNNY     71  45  39 SW5       30.23R
FORSYTH          N/A     70  45  40 W6        30.24S
$$

REGIONAL REPORTS...DAKOTAS

CITY           SKY/WX    TMP DP  RH WIND       PRES   REMARKS
WILLISTON      SUNNY     70  52  52 VRB5      30.19R
MINOT          SUNNY     72  51  47 W17       30.12R
DICKINSON      SUNNY     72  47  40 NW10      30.18R
BEACH          FAIR      73  45  35 W9        30.22R
CROSBY         FAIR      68  57  68 NW13      30.16S
BISMARCK       SUNNY     71  54  54 W3        30.15S
GRAND FORKS    MOSUNNY   73  56  54 W14       30.00S
FARGO          MOSUNNY   73  57  57 NW13      30.06R
BUFFALO SD       N/A     72  48  42 S3        30.17S
RAPID CITY     SUNNY     74  52  46 NW5       30.26R
$$

REGIONAL REPORTS...WYOMING/IDAHO/WASHINGTON

CITY           SKY/WX    TMP DP  RH WIND       PRES   REMARKS
GILLETTE       SUNNY     73  42  32 NE3       30.33S
SHERIDAN       SUNNY     70  45  40 VRB3      30.31S
BUFFALO WY     SUNNY     75  38  26 S7        30.37S
CODY           SUNNY     70  39  32 SW6       30.38S
YELLOWSTONE LA   N/A     52  42  69 SE3       30.58R
IDAHO FALLS    SUNNY     58  46  64 NW5       30.37S
SALMON         SUNNY     57  46  67 CALM      30.36R
BOISE          SUNNY     72  38  29 SE6       30.24R
SPOKANE        SUNNY     69  39  33 E3        30.20R
$$

REGIONAL REPORTS...ALBERTA

CITY           SKY/WX    TMP DP  RH WIND       PRES   REMARKS
EDMONTON       MOSUNNY   63  46  55 W8        30.18S
CALGARY        MOSUNNY   61  41  48 S5        30.25S
LETHBRIDGE     SUNNY     61  46  59 S6        30.26R
MEDICINE HAT   SUNNY     64  50  59 S5        30.24S
WATERTON GATE    N/A     64  43  45 S6          N/A
CARDSTON         N/A     61  43  51 N1          N/A
ONEFOUR          N/A     66  48  52 NW5         N/A
$$

REGIONAL REPORTS...SASKATCHEWAN

CITY           SKY/WX    TMP DP  RH WIND       PRES   REMARKS
SWIFT CURRENT  MOSUNNY   63  54  72 W7        30.23R
REGINA         MOSUNNY   66  55  68 NW14      30.15R
SASKATOON      SUNNY     66  50  55 NW15G22   30.14R
CYPRESS HILLS    N/A     64  43  45 W5          N/A
VAL MARIE        N/A     66  54  63 W1          N/A
ROCKGLEN         N/A     68  48  49 NW10        N/A
ASSINIBOIA       N/A     64  48  55 W13         N/A
$$



USA.gov is the U.S. government's official web portal to all federal, state and local government web resources and services.